Regional Weather Roundup
Issued by NWS

Home | Current Version | Previous Version | Text Only | Print | Product List | Glossary On
Versions: 1 2 3 4 5 6 7 8 9 10 11 12 13 14 15 16 17 18 19 20 21 22 23 24 25 26 27 28 29 30 31 32 33 34 35 36 37 38 39 40 41 42 43 44 45 46 47 48 49 50
000
ASUS43 KMKX 200011
RWRWI

WISCONSIN REGIONAL WEATHER ROUNDUP
NATIONAL WEATHER SERVICE MILWAUKEE/SULLIVAN WI
700 PM CDT SAT APR 19 2014

NOTE: "FAIR" INDICATES FEW OR NO CLOUDS BELOW 12,000 FEET WITH NO
SIGNIFICANT WEATHER AND/OR OBSTRUCTIONS TO VISIBILITY.

WIZ001-002-006>008-014>016-023>028-200100-
NORTHWEST WISCONSIN

CITY           SKY/WX    TMP DP  RH WIND       PRES   REMARKS
SUPERIOR ARPT  MOCLDY    34  31  88 NE5       30.03S WCI  30
6HR MIN TEMP:  33; 6HR MAX TEMP:  36;

ASHLAND        CLOUDY    46  42  86 CALM      30.02F
6HR MIN TEMP:  40; 6HR MAX TEMP:  50; 6HR PCP:  0.11;

HAYWARD        CLOUDY    51  41  68 S8        30.02R
6HR MIN TEMP:  44; 6HR MAX TEMP:  51; 6HR PCP:  0.07;

SIREN          CLOUDY    53  41  62 CALM      30.00R
6HR MIN TEMP:  47; 6HR MAX TEMP:  55; 6HR PCP:  0.02;

RICE LAKE      LGT RAIN  52  44  73 SE6       30.04S
6HR MIN TEMP:  50; 6HR MAX TEMP:  59; 6HR PCP:  0.13;

LADYSMITH      LGT RAIN  52  46  81 SE9       30.07F
6HR MIN TEMP:  51; 6HR MAX TEMP:  60; 6HR PCP:  0.12;

EAU CLAIRE     CLOUDY    64  39  39 S9        30.02F
6HR MIN TEMP:  61; 6HR MAX TEMP:  66; 6HR PCP: TRACE;

MENOMONIE      CLOUDY    62  41  46 SE5       30.02S
6HR MIN TEMP:  58; 6HR MAX TEMP:  64;

NEW RICHMOND   RAIN      56  45  67 S8        30.01S
6HR MIN TEMP:  54; 6HR MAX TEMP:  59;

OSCEOLA        CLOUDY    59  45  58 SE10G16   30.01R
6HR MIN TEMP:  55; 6HR MAX TEMP:  62;

$$

WIZ003>005-009-010-017-018-200100-
NORTH CENTRAL WISCONSIN

CITY           SKY/WX    TMP DP  RH WIND       PRES   REMARKS
WOODRUFF       LGT RAIN  45  36  71 SE5       30.10S
6HR MIN TEMP:  45; 6HR MAX TEMP:  56; 6HR PCP:  0.05;

RHINELANDER    LGT RAIN  49  33  54 SE5       30.14R
6HR MIN TEMP:  45; 6HR MAX TEMP:  53; 6HR PCP: TRACE;

EAGLE RIVER    LGT RAIN  46  34  62 S7        30.12F
6HR MIN TEMP:  46; 6HR MAX TEMP:  54;

LAND O LAKES   CLOUDY    45  37  75 S9        30.10F
6HR MIN TEMP:  45; 6HR MAX TEMP:  54; 6HR PCP:  0.02;

PHILLIPS       CLOUDY    47  43  85 SE5       30.08F
6HR MIN TEMP:  47; 6HR MAX TEMP:  56; 6HR PCP:  0.05;

TOMAHAWK       RAIN      46  40  80 CALM      30.12S
6HR MIN TEMP:  46; 6HR MAX TEMP:  55;

MEDFORD        CLOUDY    56  39  51 SE3       30.10R
6HR MIN TEMP:  48; 6HR MAX TEMP:  59;

MERRILL        CLOUDY    56  37  47 CALM      30.12R
6HR MIN TEMP:  51; 6HR MAX TEMP:  60;

$$

WIZ029-030-035-036-043>047-200100-
CENTRAL WISCONSIN

CITY           SKY/WX    TMP DP  RH WIND       PRES   REMARKS
WAUSAU         CLOUDY    60  36  40 S14       30.09S
6HR MIN TEMP:  53; 6HR MAX TEMP:  61;

MOSINEE        MOCLDY    61  37  41 S13G20    30.12F
MARSHFIELD     CLOUDY    62  39  42 S14       30.09S
6HR MIN TEMP:  54; 6HR MAX TEMP:  64;

STEVENS POINT  MOCLDY    60  36  40 S9        30.13S
6HR MIN TEMP:  51; 6HR MAX TEMP:  61;

WAUPACA        MOCLDY    61  36  39 SE10G16   30.16S
WAUTOMA        MOCLDY    62  37  39 SE9       30.15F
6HR MIN TEMP:  56; 6HR MAX TEMP:  65;

WISC RAPIDS    MOCLDY    63  35  35 S9        30.12F
6HR MIN TEMP:  57; 6HR MAX TEMP:  66;

CAMP DOUGLAS   MOCLDY    66  38  36 S12       30.11S
6HR MIN TEMP:  58; 6HR MAX TEMP:  68;

$$

WIZ011>013-019>022-031-037>040-048>050-200100-
NORTHEAST WISCONSIN

CITY           SKY/WX    TMP DP  RH WIND       PRES   REMARKS
ANTIGO         MOCLDY    49  37  63 SE10      30.15S
6HR MIN TEMP:  47; 6HR MAX TEMP:  53;

STURGEON BAY   MOCLDY    43  30  61 S13       30.23F
6HR MIN TEMP:  43; 6HR MAX TEMP:  48;

GREEN BAY      MOCLDY    51  37  58 SE13      30.20F
6HR MIN TEMP:  48; 6HR MAX TEMP:  55;

MANITOWOC      PTCLDY    45  35  68 S12       30.24F
6HR MIN TEMP:  40; 6HR MAX TEMP:  48;

APPLETON       MOCLDY    54  34  47 SE14      30.19F
CLINTONVILLE   MOCLDY    54  36  50 SE10      30.16F
OSHKOSH        MOCLDY    56  35  45 SE9       30.18F
6HR MIN TEMP:  52; 6HR MAX TEMP:  60;

$$

WIZ032>034-041-042-053>061-200100-
SOUTHWEST WISCONSIN

CITY           SKY/WX    TMP DP  RH WIND       PRES   REMARKS
LA CROSSE      MOCLDY    68  38  33 S12       30.06F
6HR MIN TEMP:  61; 6HR MAX TEMP:  70;

SPARTA         MOCLDY    67  35  30 S13       30.10S
6HR MIN TEMP:  61; 6HR MAX TEMP:  69;

VIROQUA        FAIR      64  37  36 S12       30.10S
6HR MIN TEMP:  60; 6HR MAX TEMP:  67;

BOSCOBEL       MOCLDY    69  35  28 S8        30.11F
6HR MIN TEMP:  62; 6HR MAX TEMP:  71;

PRAIRIE DU CHI MOCLDY    70  36  28 SE9       30.09S
6HR MIN TEMP:  62; 6HR MAX TEMP:  71;

PLATTEVILLE    FAIR      64  35  34 SE10      30.14S
6HR MIN TEMP:  62; 6HR MAX TEMP:  69;

$$

WIZ056-057-062-063-064-067-068-200100-
SOUTH CENTRAL WISCONSIN

CITY           SKY/WX    TMP DP  RH WIND       PRES   REMARKS
BARABOO/DELLS  MOCLDY    62  35  37 S10       30.14S
6HR MIN TEMP:  57; 6HR MAX TEMP:  66;

LONE ROCK      MOCLDY    66  38  35 S9        30.14R
6HR MIN TEMP:  61; 6HR MAX TEMP:  70;

WATERTOWN      MOCLDY    59  35  40 SE6       30.17F
6HR MIN TEMP:  55; 6HR MAX TEMP:  64;

MADISON        MOCLDY    65  35  33 S10       30.17S
6HR MIN TEMP:  59; 6HR MAX TEMP:  67;

MIDDLETON      FAIR      65  32  28 S8        30.17S
6HR MIN TEMP:  59; 6HR MAX TEMP:  69;

MONROE         MOCLDY    65  34  31 S10       30.15F
6HR MIN TEMP:  60; 6HR MAX TEMP:  67;

JANESVILLE     CLEAR     66  28  24 S13G18      N/A
$$

WIZ051-052-058>065-066-070>072-200100-
SOUTHEAST WISCONSIN

CITY           SKY/WX    TMP DP  RH WIND       PRES   REMARKS
MILWAUKEE      MOCLDY    46  34  62 SE7       30.24F
6HR MIN TEMP:  45; 6HR MAX TEMP:  53;

WAUKESHA       PTCLDY    54  36  50 SE8       30.22F
MILWAUKEE/TIMM CLEAR     52  34  50 SE10      30.23F
RACINE         MOCLDY    47  34  60 E5        30.25F
6HR MIN TEMP:  44; 6HR MAX TEMP:  52;

BURLINGTON     MOCLDY    55  39  56 W8        30.22S
6HR MIN TEMP:  52; 6HR MAX TEMP:  62;

KENOSHA        MOCLDY    50  36  58 E9        30.23F
6HR MIN TEMP:  47; 6HR MAX TEMP:  55;

FOND DU LAC    MOCLDY    56  36  47 SE12      30.19F
6HR MIN TEMP:  52; 6HR MAX TEMP:  59;

SHEBOYGAN      MOCLDY    47  36  65 S7        30.23F
6HR MIN TEMP:  44; 6HR MAX TEMP:  51;

WEST BEND      MOCLDY    48  34  57 SE6       30.21F
JUNEAU         MOCLDY    57  32  38 SE8       30.20S
6HR MIN TEMP:  53; 6HR MAX TEMP:  60;

$$

LSZ147-162-200100-
LAKE SUPERIOR

STATION/POSITION TIME  TEMP    WIND        PRES    WAVE
                       AIR SEA DIR/SP/G            HT/PER
                 (UTC) (F)     (DEG/KT/KT) (MB)    (FT/S)
DEVILS ISLAND    0000   37        CALM     1017.9R
PORT WING        2340   34      30/  8/ 10 1017.3R
SAXON HARBOR     2300             CALM     1016.6F
$$

LMZ867-665-643>646-200100-
LAKE MICHIGAN

STATION/POSITION TIME  TEMP    WIND        PRES    WAVE
                       AIR SEA DIR/SP/G            HT/PER
                 (UTC) (F)     (DEG/KT/KT) (MB)    (FT/S)
NORTHPORT PIER   2300   36     150/  7/  8 1024.4F
SISTER BAY       2309   45     150/ 10/ 14   N/A
KEWAUNEE LAKESHO 2300   40     180/  9/ 11 1024.9F
SHEBOYGAN LAKESH 0000   43     180/  9/  9 1024.6F
PORT WASHINGTON  2340   40     190/  2/  3 1024.4F
MILWAUKEE LAKESH 2300   39      50/  5/  6   N/A
KENOSHA   LAKESH 0000   42      20/  3/  3   N/A
$$

TC  - TEMPERATURE IN CELSIUS
VSB - VISIBILITY IN STATUTE MILES
WCI - WIND CHILL INDEX
HX  - HEAT INDEX




USA.gov is the U.S. government's official web portal to all federal, state and local government web resources and services.